152P/Helin-Lawrence (2022)

Japanese version
Home page
Updated on March 7, 2023

---------------------------------------------------------------------

* Profile

* Pictures

* Orbital Elements

Epoch 2022 Aug. 9.0 TT = JDT 2459800.5
T 2022 Jan. 13.83920 TT                                 Rudenko
q   3.0951039            (2000.0)            P               Q
n   0.10406548     Peri.  163.97758     -0.24061659     +0.95534854
a   4.4764278      Node    91.85783     -0.90830526     -0.15933557
e   0.3085773      Incl.    9.88039     -0.34217717     -0.24883999
P   9.47
From 1009 observations 1993 Apr. 22-2022 June 11, mean residual 0".9.
     Nongravitational parameters A1 = +0.06, A2 = +0.0145.

* Finding Charts

* Magnitudes Graph

        m1 = 5.0 + 5 log d + 20.0 log r(t - 30)

---------------------------------------------------------------------

The orbital elements are published on M.P.E.C. 2022-M21.
The charts are made with StellaNavigator Ver.10 (AstroArts).
The magnitudes graphs are made with Comet for Windows.

---------------------------------------------------------------------

Copyright(C) Seiichi Yoshida (comet@aerith.net). All rights reserved.